Location: Panama City
(9.1012°N, 79.4029°W)
Time: 03:55:02
(UTC-05:00)

ISS - Pass Details

Date: 23 September 2016
Orbit: 401 x 408 km, 51.6° (Epoch: 26 June)

Event Time Altitude Azimuth Distance (km) Brightness Sun altitude
Rises 18:54:08 0° 203° (SSW) 2,306 0.3 -11.1°
Reaches altitude 10° 18:56:17 10° 195° (SSW) 1,445 -0.9 -11.6°
Maximum altitude 18:59:19 37° 125° (SE) 633 -3.3 -12.3°
Enters shadow 19:01:01 21° 69° (ENE) 963 -2.5 -12.8°
